Weather Roundup
Issued by NWS

Home | Current Version | Previous Version | Graphics & Text | Print | Product List | Glossary Off
Versions: 1 2 3 4 5 6 7 8 9 10 11 12 13 14 15 16 17 18 19 20 21 22 23 24 25 26 27 28 29 30 31 32 33 34 35 36 37 38 39 40 41 42 43 44 45 46 47 48 49 50

638
NZUS93 KARX 301759
HRRWXR

CURRENT HOURLY OBSERVATIONS ACROSS
MUCH OF THE UPPER MISSISSIPPI VALLEY
NATIONAL WEATHER SERVICE LA CROSSE WI
100 PM CDT SAT JUL 30 2016


...SOUTHEAST MINNESOTA...


CITY           SKY/WX    TMP DP  RH WIND       PRES   REMARKS
ROCHESTER      MOSUNNY   76  64  66 E6        30.05F
ROCHESTER/MAYO MOCLDY    76  62  60 SE3       30.05S
WINONA         CLOUDY    79  61  53 E7        30.04S
AUSTIN         MOSUNNY   72  66  83 CALM      30.05S
ALBERT LEA     MOSUNNY   77  64  65 E3        30.03F
DODGE CENTER   MOSUNNY   77  64  65 CALM      30.05S
PRESTON        CLOUDY    75  63  64 NE5       30.05F
OWATONNA       PTSUNNY   75  63  64 CALM      30.03F
FARIBAULT      PTSUNNY   73  66  78 CALM      30.04S
$$

...ELSEWHERE IN MINNESOTA...


CITY           SKY/WX    TMP DP  RH WIND       PRES   REMARKS
MINNEAPOLIS    MOSUNNY   78  63  59 SE5       30.03F
INTNL FALLS    MOSUNNY   77  59  53 SE8       30.01F
DULUTH         MOSUNNY   73  60  63 E6        30.06F
RED WING       MOSUNNY   81  57  44 SE7       30.02F
REDWOOD FALLS  MOSUNNY   77  54  44 CALM      30.02F
MANKATO        SUNNY     75  57  53 SE7       30.03F
WORTHINGTON    SUNNY     76  54  46 VRB7      30.04F
FAIRMONT       MOSUNNY   75  57  53 CALM      30.03S
$$

...SOUTHWEST WISCONSIN...


CITY           SKY/WX    TMP DP  RH WIND       PRES   REMARKS
LA CROSSE      PTSUNNY   80  63  55 VRB3      30.03S
PRAIRIE DU CHI PTSUNNY   75  62  64 CALM      30.02S
BOSCOBEL       PTSUNNY   78  62  57 E8        30.03S
LONE ROCK      NOT AVBL
PLATTEVILLE    MOSUNNY   77  64  63 E9        30.04R
FORT MC COY    CLOUDY    78  62  57 E8        30.05S
MAUSTON-NEW LI PTCLDY    77  63  61 E3        30.04S
VIROQUA        MOCLDY    76  61  60 E5        30.06R
WIS DELLS      NOT AVBL
$$

...ELSEWHERE IN WISCONSIN...


CITY           SKY/WX    TMP DP  RH WIND       PRES   REMARKS
MILWAUKEE      PTSUNNY   74  62  66 NE13      30.03S
MADISON        PTSUNNY   77  62  59 E9        30.03S
GREEN BAY      SUNNY     76  57  51 NE15      30.06S
EAU CLAIRE     NOT AVBL
BLACK RVR FLS  MOCLDY    79  60  51 E9        30.04S
MEDFORD        MOSUNNY   74  58  56 E6        30.08S
WAUSAU         MOSUNNY   75  58  55 SE5       30.06S
WIS RAPIDS     MOSUNNY   76  57  51 E7        30.07S
MARSHFIELD     PTSUNNY   77  60  55 E8        30.06S
RICE LAKE      SUNNY     75  55  48 CALM      30.08S
$$

...NORTHEAST IOWA...


CITY           SKY/WX    TMP DP  RH WIND       PRES   REMARKS
WATERLOO       PTSUNNY   77  64  64 N7        30.01F
DUBUQUE        PTSUNNY   74  67  78 NE9       30.03S
DECORAH        PTSUNNY   73  66  78 CALM      30.04S
MASON CITY     PTSUNNY   77  65  66 VRB6      30.04F
CHARLES CITY   PTSUNNY   75  66  73 CALM      30.04S
OELWEIN        PTSUNNY   73  66  78 N3        30.04S
$$

...ELSEWHERE IN IOWA...


CITY           SKY/WX    TMP DP  RH WIND       PRES   REMARKS
DES MOINES     CLOUDY    78  64  61 CALM      30.02F
IOWA CITY      CLOUDY    78  67  68 NE6       30.02S
FORT DODGE     CLOUDY    73  64  73 CALM      30.05S
MARSHALLTOWN   PTSUNNY   79  68  69 N5        30.02F
CEDAR RAPIDS   CLOUDY    77  67  71 NE5       30.01S
$$

...NORTHERN ILLINOIS...


CITY           SKY/WX    TMP DP  RH WIND       PRES   REMARKS
CHICAGO-OHARE  CLOUDY    73  65  75 NE10      30.00S
CHICAGO-MIDWAY PTSUNNY   77  66  68 NE15      29.98F
MOLINE         MOSUNNY   80  67  64 CALM      29.99S
ROCKFORD       PTSUNNY   76  65  68 E7        30.02R
PEORIA         PTSUNNY   81  68  64 VRB3      29.98S
$$

NOTE: "FAIR" INDICATES FEW OR NO CLOUDS BELOW 12,000 FEET WITH NO
SIGNIFICANT WEATHER AND/OR OBSTRUCTIONS TO VISIBILITY. WIND
SPEEDS ARE IN MILES-PER-HOUR.




USA.gov is the U.S. government's official web portal to all federal, state and local government web resources and services.